Regional Weather Roundup
Issued by NWS

Home | Current Version | Previous Version | Text Only | Print | Product List | Glossary On
Versions: 1 2 3 4 5 6 7 8 9 10 11 12 13 14 15 16 17 18 19 20 21 22 23 24 25 26 27 28 29 30 31 32 33 34 35 36 37 38 39 40 41 42 43 44 45 46 47 48 49 50
000
ASUS43 KLOT 241709
RWRIL

ILLINOIS REGIONAL WEATHER ROUNDUP
NATIONAL WEATHER SERVICE CHICAGO/ROMEOVILLE IL
1200 PM CDT MON JUL 24 2017

NOTE: "FAIR" INDICATES FEW OR NO CLOUDS BELOW 12,000 FEET WITH NO
SIGNIFICANT WEATHER AND/OR OBSTRUCTIONS TO VISIBILITY.

* THESE STATIONS ARE NOT UNDER NWS QUALITY CONTROL. THEY ALSO MAY NOT
  REPORT WEATHER SUCH AS PRECIPITATION OR FOG.

ILZ001-002-007-009-015-016-024-241800-
NORTHWEST ILLINOIS

CITY           SKY/WX    TMP DP  RH WIND       PRES   REMARKS
MOLINE         CLOUDY    72  64  76 NE9       30.04S
STERLING*      CLOUDY    70  62  76 E8        30.06S
SAVANNA*       CLOUDY    72  61  68 NE7       30.06S
$$

ILZ003-004-008-010-011-017-018-241800-
NORTH CENTRAL ILLINOIS

CITY           SKY/WX    TMP DP  RH WIND       PRES   REMARKS
ROCKFORD       CLOUDY    73  59  61 NE13      30.07R
FREEPORT*      CLOUDY    70  59  66 NE3       30.09S
ROCHELLE*      CLOUDY    71  61  70 NE8       30.06S
DE KALB*       CLOUDY    71  62  74 NE13      30.07R
PERU*          CLOUDY   N/A N/A N/A N9        30.05S
$$

ILZ005-006-012>014-019>023-241800-
NORTHEAST ILLINOIS

CITY           SKY/WX    TMP DP  RH WIND       PRES   REMARKS
CHICAGO-OHARE  PTSUNNY   71  56  58 N13       30.04R
CHICAGO-MIDWAY CLOUDY    71  59  65 N14       30.03R
AURORA         CLOUDY    73  62  68 NE14      30.05R
LANSING*       CLOUDY    71  59  66 N9        30.03R
JOLIET*        PTSUNNY   74  61  62 NE8       30.03S
WAUKEGAN       FAIR      69  59  70 N10       30.05R
DUPAGE AIRPORT CLOUDY    70  61  73 N9        30.05R
WHEELING       CLOUDY    69  59  70 NE9       30.07R
MORRIS*        CLOUDY    76  64  65 NE7       30.02S
ROMEOVILLE*    CLOUDY    71  58  63 NE13      30.04R
NORTHERLY ISL    N/A     71  59  65 NE13        N/A
$$

LMZ740>746-241800-
SOUTHERN LAKE MICHIGAN

STATION/POSITION SKY/WX   TEMP    WIND        PRES    VSBY  WAVE
                          AIR SEA DIR/SP/G                  HT/PER
                          (F)     (DEG/KT/KT) (MB)    (MI)  (FT/S)
SOUTHERN BUOY              66 70   20/ 14/ 17 1016.7          4/ 7
WILMETTE HARBOR            67 72   20/ 12/ 16   N/A           6/ 6
HARRISON CRIB              68      20/ 18/ 19   N/A
BURNHAM HARBOR             70                   N/A
CALUMET HARBOR             70     360/ 11/ 15 1016.7R
BURNS HARBOR               69      10/ 14/ 17 1017.3R
MICHIGAN CITY              68     360/ 17/ 19   N/A
MICHIGAN CITY 6N           68 74   30/ 12/ 17   N/A           6/ 6
ST. JOSEPH                 67 73   40/ 12/ 14 1016.7          5/ 6
$$

ILZ025>027-034>036-040-047-049-050-058-095>099-241800-
WEST-CENTRAL ILLINOIS

CITY           SKY/WX    TMP DP  RH WIND       PRES   REMARKS
QUINCY         FAIR      82  60  47 NE9       30.00S HX  82
GALESBURG*     CLOUDY    73  66  77 NE8       30.04S
MACOMB*        PTSUNNY   76  67  74 E6        30.04S
JACKSONVILLE*  PTSUNNY   81  63  53 N6        29.98F HX  82
PITTSFIELD*    FAIR      80  64  58 NE7       30.01S HX  82
$$

ILZ028>032-037-038-041>044-048-051>054-059>061-241800-
CENTRAL ILLINOIS

CITY           SKY/WX    TMP DP  RH WIND       PRES   REMARKS
PONTIAC        CLOUDY    74  67  76 N8        30.03S
BLOOMINGTON    CLOUDY    72  64  78 NE9       30.04R
DECATUR        PTSUNNY   80  69  69 NE8       30.00R HX  83
PEORIA         CLOUDY    72  65  78 NE7       30.03S
LACON*         CLOUDY    71  64  78 N3        30.03S
LINCOLN*       CLOUDY    75  68  79 NE8       30.01S
SPRINGFIELD    FAIR      81  71  71 NE12      30.00R HX  85
TAYLORVILLE    FAIR      81  67  61 E5        29.98S HX  83
$$

ILZ033-039-045-046-055>057-062-063-241800-
EAST-CENTRAL ILLINOIS

CITY           SKY/WX    TMP DP  RH WIND       PRES   REMARKS
CHAMPAIGN      CLOUDY    77  66  68 NE7       30.01R
RANTOUL*       CLOUDY    75  67  74 N9        30.01S
MATTOON        FAIR      80  69  69 NE8       29.98S HX  83
PARIS*         FAIR      77  69  76 N6        30.00R
$$

ILZ079-100>102-241800-
SOUTHWEST ILLINOIS

CITY           SKY/WX    TMP DP  RH WIND       PRES   REMARKS
ALTON          MOSUNNY   82  68  61 NW6       29.98S HX  85
BELLEVILLE     FAIR      84  68  57 CALM      29.98R HX  87
CAHOKIA*       FAIR      87  63  44 N7        29.96F HX  88
SPARTA*        FAIR      85  68  57 CALM      29.98S HX  88
$$

ILZ064>066-069>071-074>076-080>082-084>086-088>090-092>094-241800-
SOUTH-CENTRAL ILLINOIS

CITY           SKY/WX    TMP DP  RH WIND       PRES   REMARKS
CARBONDALE     FAIR      86  73  65 CALM      29.96S HX  93
CAIRO*         FAIR      86  75  69 CALM      29.95S HX  95
EFFINGHAM*     FAIR      83  69  62 NE3       29.99R HX  86
MARION         MOSUNNY   88  75  66 N7        29.96S HX  97
MT. VERNON     FAIR      85  68  56 CALM      29.96S HX  88
CENTRALIA*     FAIR      85  69  59 N5        29.96S HX  88
SALEM*         FAIR      84  65  52 CALM      29.97S HX  86
METROPOLIS*    FAIR      86  76  71 SW3       29.96S HX  96
$$

ILZ067-068-072-073-078-083-087-091-241800-
SOUTHEAST ILLINOIS

CITY           SKY/WX    TMP DP  RH WIND       PRES   REMARKS
LAWRENCEVILLE  FAIR      84  71  65 N6        29.96S HX  89
FLORA*         FAIR      85  69  57 N5        29.97S HX  89
FAIRFIELD*     FAIR      85  67  54 CALM      29.94F HX  87
HARRISBURG*    FAIR      88  75  67 NW5       29.95S HX  97
ROBINSON*      FAIR      80  70  72 NW7       29.97S HX  82
CARMI*         FAIR      84  75  74 CALM      29.94F HX  92
$$

ABBREVIATIONS USED IN REMARKS
   TC - TEMPERATURE IN CELSIUS
  WCI - WIND CHILL INDEX
   HX - HEAT INDEX
  VSB - VISIBILITY
$$




USA.gov is the U.S. government's official web portal to all federal, state and local government web resources and services.